Location: Eurasberg
(48.3353°N, 11.0839°E)
Time: 23:22:31
(UTC+00:00)

Cosmos 2084 Rocket - Visible Passes

Search period start: 18 April 2026 00:00
Search period end: 28 April 2026 00:00
Orbit: 534 x 577 km, 62.8° (Epoch: 18 April)

Date Brightness Start Highest point End Pass type
(mag) Time Alt. Az. Time Alt. Az. Time Alt. Az.
18 Apr 6.6 00:34:24 10° NNW 00:36:37 14° NNE 00:38:49 10° NE visible
18 Apr 5.0 02:12:30 10° NNW 02:16:26 37° NE 02:20:23 10° ESE visible
18 Apr 3.2 19:29:44 10° SW 19:33:47 84° SE 19:37:55 10° NE visible
18 Apr 5.9 21:09:49 10° W 21:13:01 21° NNW 21:16:15 10° NNE visible
18 Apr 6.8 22:51:49 10° NNW 22:53:12 11° N 22:54:35 10° NNE visible
19 Apr 6.5 00:31:06 10° NNW 00:33:35 15° NNE 00:36:05 10° NE visible
19 Apr 4.5 02:09:13 10° NNW 02:13:16 46° NE 02:17:21 10° ESE visible
19 Apr 3.5 19:26:30 10° SW 19:30:33 75° NW 19:34:41 10° NE visible
19 Apr 6.2 21:07:00 10° WNW 21:09:56 19° NNW 21:12:55 10° NNE visible
19 Apr 6.8 22:48:57 10° NNW 22:50:13 11° N 22:51:30 10° NNE visible
20 Apr 6.3 00:27:47 10° NNW 00:30:34 17° NNE 00:33:21 10° ENE visible
20 Apr 4.0 02:05:56 10° NW 02:10:06 58° NE 02:14:17 10° SE visible
20 Apr 4.0 19:23:20 10° WSW 19:27:20 58° NW 19:31:26 10° NE visible
20 Apr 6.4 21:04:13 10° WNW 21:06:53 17° NNW 21:09:36 10° NNE visible
20 Apr 6.7 22:45:57 10° NNW 22:47:14 11° N 22:48:32 10° NNE visible
21 Apr 6.1 00:24:27 10° NNW 00:27:30 19° NNE 00:30:35 10° ENE visible
21 Apr 3.5 02:02:40 10° NW 02:06:53 75° NE 02:11:07 10° SE visible
21 Apr 4.9 03:42:30 10° WNW 03:45:07 16° WSW 03:47:44 10° SSW visible
21 Apr 4.6 19:20:15 10° WSW 19:24:09 45° NW 19:28:09 10° NNE visible
21 Apr 6.5 21:01:28 10° NW 21:03:51 15° NNW 21:06:16 10° NNE visible
21 Apr 6.7 22:42:50 10° NNW 22:44:15 11° N 22:45:40 10° NNE visible
22 Apr 5.8 00:21:07 10° NNW 00:24:26 22° NNE 00:27:46 10° E visible
22 Apr 3.2 01:59:26 10° NW 02:03:39 84° SW 02:07:53 10° SE visible
22 Apr 5.1 19:17:13 10° WSW 19:21:00 36° NW 19:24:51 10° NNE visible
22 Apr 6.5 20:58:44 10° NW 21:00:50 13° NNW 21:02:56 10° NNE visible
22 Apr 6.6 22:39:37 10° NNW 22:41:15 12° N 22:42:54 10° NNE visible
23 Apr 5.5 00:17:47 10° NNW 00:21:20 26° NNE 00:24:53 10° E visible
23 Apr 3.3 01:56:13 10° NW 02:00:23 64° SW 02:04:35 10° SSE visible
23 Apr 5.5 19:14:14 10° W 19:17:51 30° NW 19:21:31 10° NNE visible
23 Apr 6.5 20:55:59 10° NW 20:57:49 12° NNW 20:59:39 10° NNE visible
23 Apr 6.5 22:36:21 10° NNW 22:38:15 13° NNE 22:40:10 10° NE visible
24 Apr 5.2 00:14:27 10° NNW 00:18:12 31° NE 00:21:45 11° E visible
24 Apr 3.5 01:53:02 10° NW 01:57:06 48° SW 01:57:19 48° SW visible
24 Apr 5.8 19:11:18 10° W 19:14:43 25° NNW 19:18:12 10° NNE visible
24 Apr 6.5 20:53:15 10° NNW 20:54:49 12° N 20:56:24 10° NNE visible
24 Apr 6.4 22:33:03 10° NNW 22:35:14 14° NNE 22:37:26 10° NE visible
25 Apr 4.8 00:11:08 10° NNW 00:15:03 37° NE 00:16:23 29° ENE visible
25 Apr 4.7 01:49:54 10° NW 01:52:05 25° WNW 01:52:05 25° WNW visible
25 Apr 6.0 19:08:25 10° W 19:11:37 21° NNW 19:14:52 10° NNE visible
25 Apr 6.5 20:50:26 10° NNW 20:51:49 11° N 20:53:11 10° NNE visible
25 Apr 6.3 22:29:43 10° NNW 22:32:12 15° NNE 22:34:42 10° NE visible
26 Apr 4.3 00:07:49 10° NNW 00:11:53 46° NE 00:12:01 46° NE visible
26 Apr 5.4 01:46:51 10° WNW 01:47:44 15° WNW 01:47:44 15° WNW visible
26 Apr 6.1 19:05:35 10° WNW 19:08:32 19° NNW 19:11:31 10° NNE visible
26 Apr 6.5 20:47:33 10° NNW 20:48:48 11° N 20:50:04 10° NNE visible
26 Apr 6.1 22:26:22 10° NNW 22:29:09 17° NNE 22:31:56 10° ENE visible
27 Apr 4.1 00:04:31 10° NW 00:08:00 51° N 00:08:00 51° N visible
27 Apr 6.2 19:02:48 10° WNW 19:05:27 17° NNW 19:08:10 10° NNE visible
27 Apr 6.4 20:44:32 10° NNW 20:45:48 11° N 20:47:05 10° NNE visible
27 Apr 5.8 22:23:01 10° NNW 22:26:05 19° NNE 22:28:26 13° ENE visible
